Location: Paralde Spring
(38.5794°N, 119.0140°W)
Time: 23:21:18
(UTC+00:00)

Cosmos 2278 - Pass Details

Date: 18 September 2020
Orbit: 840 x 852 km, 71.1° (Epoch: 20 October)

Event Time Altitude Azimuth Distance (km) Brightness Sun altitude
Exits shadow 12:10:43 30° 269° (W) 1,494 4.4 -18.1°
Maximum altitude 12:12:15 34° 300° (WNW) 1,362 4.4 -17.8°
Drops below altitude 10° 12:17:25 10° 5° (N) 2,485 6.4 -16.9°
Sets 12:20:07 0° 15° (NNE) 3,424 7.3 -16.4°
